STARLINK-32114, 60287

Orbit data source: Space-Track

STARLINK-32114, 60287 is a payload satellite owned by SpaceX/Seattle (US) in LEO that was launched on Sun, 28 Jul 2024 UTC via an FALCON 9 launch vehicle from the Air Force Eastern Test Range (AFETR). Payload-class satellites include a variety of spacecraft equipped with specific instruments for various scientific and technological missions. These include communications satellites like Starlink; space stations such as the ISS; scientific satellites like the Hubble; Earth observation satellites from companies like Planet Labs, Umbra, and HawkEye 360; GPS; miniature CubeSats for education and research; and military/defense satellites.

Loading next visibility...
Identifier
60287, 2024-132K
Orbit
LEO
Country
Flag of USUS
Related business
Manufacturer
SpaceX/Seattle
Mission
Operational Commercial Communications
Bus & Motor
STARLINK V2M, Unknown motor
Mass
730 kg wet, ~700 kg dry
Launch date (UTC)
2024-07-28 (2 years ago)
Launch vehicle
FALCON 9
Launch site
Air Force Eastern Test Range (AFETR)
Object type
Payload
Rocket body
Debris
Shape & HBR
Box + 2 Pan, 17.7 m
Radar Cross Section
33.884 m², Large (>1 m²)

Expand to show TLE details & history
Last TLE update: 1 day ago

TLE from 1 day ago
0 STARLINK-32114
1 60287U 24132K   26254.31593889 -.00000127  00000-0  76680-5 0  9993
2 60287  53.1602 269.2920 0001204  85.4063 274.7076 15.31702306119995
Epoch: 2026-09-11T07:34Z
TLE epoch observation values (Epoch: 2026-09-11T07:34:57.120Z)
Latitude
0.00001°
Longitude
165.21296°
Altitude
471.566 km
Speed
7.632 km/s
True Right ascension
17h 57m 10s
True Declination
0° 00' 00"
Sunlit
Object was in daylight at epoch
Visualization orbit readout
Latitude
Unknown
Longitude
Unknown
Altitude
Unknown
Speed
Unknown
Apparent Right ascension
Unknown
Apparent Declination
Unknown
Sunlit
N/A
Visualization observer readout
Local Sidereal Time
03:49:37
Azimuth
Unknown
Elevation
Unknown
Doppler factor
Unknown
Orbital elements
Apogee altitude
471.814 km
Perigee altitude
470.165 km
Semi-major axis
6,849.127 km
Eccentricity
0.00012
Inclination
53.1602°
RAAN
269.292°
Arg. of periapsis
85.4063°
True anomaly
274.69385°
Mean anomaly
274.7076°
Eccentric anomaly
274.70072°
Mean motion
3.82904 °/min
Orbital period
94.02 mins
BSTAR
0.000007668
Loading maneuver chart data...
Computing Atmospheric mass density...
Loading historical data...
Loading historical data...
Loading historical data...
Loading historical data...
Loading historical data...
Loading historical data...
Loading historical data...

Documentation

Showing up to 5 results
|